This demonstration page uses our WeatherBlox Daily Observations layout. Learn more.

Left ArrowRight Arrow

39.01783, -85.05884

Hourly Observations for October 21, 2021

Temp ( °F °C ) Dew Point ( °F °C ) Humidity (%) Winds ( mph kmh ) Pressure ( in mb ) Visibility ( mi km ) Precip ( " mm )
12:52 am 00:52 Mostly Cloudy 58 14.4 50 10 75 75 S 6 9 30.04 1017 10 16 N/A
1:52 am 01:52 Cloudy 55 12.8 49 9.4 80 80 S 7 11 30.03 1017 10 16 N/A
2:52 am 02:52 Mostly Cloudy 55 12.8 50 10 83 83 S 8 13 30.01 1016 10 16 N/A
3:52 am 03:52 Partly Cloudy 56 13.3 51 10.6 84 84 S 8 13 29.99 1016 10 16 N/A
4:52 am 04:52 Mostly Clear 55 12.8 51 10.6 87 87 S 7 11 29.98 1015 10 16 N/A
5:52 am 05:52 Clear 57 13.9 52 11.1 83 83 S 9 15 29.96 1015 10 16 N/A
6:52 am 06:52 Mostly Clear 57 13.9 53 11.7 87 87 S 10 17 29.95 1014 10 16 N/A
7:52 am 07:52 Cloudy 59 15 55 12.8 87 87 SSW 9 15 29.94 1014 9 14 N/A
8:22 am 08:22 Cloudy 60 15.6 56 13.3 86 86 S 7 11 29.94 1014 8 13 0.00 0.00
8:43 am 08:43 Cloudy 60 15.6 57 13.9 90 90 S 8 13 29.94 1014 7 11 0.00 0.00
8:52 am 08:52 Cloudy 61 16.1 57 13.9 87 87 SSW 8 13 29.93 1014 7 11 0.00 0.00
9:52 am 09:52 Cloudy 62 16.7 58 14.4 86 86 SSW 10 17 29.93 1014 7 11 N/A
10:43 am 10:43 Cloudy with Mist and Fog 63 17.2 59 15 87 87 SSW 9 15 29.93 1013 6 10 0.02 0.51
10:52 am 10:52 Cloudy with Mist and Fog 62 16.7 59 15 90 90 SSW 9 15 29.93 1013 6 10 0.02 0.51
11:52 am 11:52 Cloudy 65 18.3 60 15.6 84 84 SW 9 15 29.91 1013 7 11 N/A
12:27 pm 12:27 Cloudy 67 19.4 61 16.1 81 81 SW 13 20 29.90 1013 8 13 N/A
12:52 pm 12:52 Mostly Cloudy 68 20 60 15.6 76 76 SSW 15 24 29.89 1012 8 13 N/A
1:29 pm 13:29 Partly Cloudy 70 21.1 59 15 68 68 SW 18 30 29.86 1011 10 16 N/A
1:52 pm 13:52 Partly Cloudy 72 22.2 55 12.8 55 55 SW 18 30 29.85 1011 10 16 N/A
2:52 pm 14:52 Partly Cloudy 71 21.7 53 11.7 53 53 W 17 28 29.84 1011 10 16 N/A
3:52 pm 15:52 Partly Cloudy 69 20.6 48 8.9 47 47 W 28 44 29.86 1011 10 16 N/A
4:52 pm 16:52 Mostly Sunny 66 18.9 42 5.6 42 42 W 18 30 29.90 1012 10 16 N/A
5:52 pm 17:52 Partly Cloudy 62 16.7 43 6.1 50 50 WNW 17 28 29.92 1013 10 16 N/A
6:52 pm 18:52 Mostly Cloudy 60 15.6 43 6.1 53 53 WNW 15 24 29.94 1014 10 16 N/A
7:52 pm 19:52 Mostly Cloudy 56 13.3 43 6.1 62 62 WNW 16 26 29.97 1015 10 16 N/A
8:52 pm 20:52 Mostly Cloudy 54 12.2 43 6.1 67 67 WNW 15 24 29.99 1016 10 16 N/A
9:52 pm 21:52 Cloudy 52 11.1 42 5.6 69 69 W 14 22 30.01 1016 10 16 N/A
10:52 pm 22:52 Partly Cloudy 51 10.6 43 6.1 74 74 W 9 15 30.01 1016 10 16 N/A
11:52 pm 23:52 Mostly Clear 49 9.4 42 5.6 77 77 W 7 11 30.02 1017 10 16 N/A

Powered by AerisWeather